Regional Weather Roundup
Issued by NWS

Home | Current Version | Previous Version | Text Only | Print | Product List | Glossary Off
Versions: 1 2 3 4 5 6 7 8 9 10 11 12 13 14 15 16 17 18 19 20 21 22 23 24 25 26 27 28 29 30 31 32 33 34 35 36 37 38 39 40 41 42 43 44 45 46 47 48 49 50

310
ASUS43 KMKX 131411
RWRWI

WISCONSIN REGIONAL WEATHER ROUNDUP
NATIONAL WEATHER SERVICE MILWAUKEE/SULLIVAN WI
800 AM CST WED DEC 13 2017

NOTE: "FAIR" INDICATES FEW OR NO CLOUDS BELOW 12,000 FEET WITH NO
SIGNIFICANT WEATHER AND/OR OBSTRUCTIONS TO VISIBILITY.

WIZ001-002-006>008-014>016-023>028-131500-
NORTHWEST WISCONSIN

CITY           SKY/WX    TMP DP  RH WIND       PRES   REMARKS
SUPERIOR ARPT  CLOUDY    19  16  88 E5        29.51R WCI  12
ASHLAND        LGT SNOW  16  13  88 NE7       29.51R VSB 3/4 WCI   6
HAYWARD        SNOW      18  13  80 NE8       29.44R VSB 1/2 WCI   8
SIREN          LGT SNOW  20  18  91 NE9       29.44R WCI   9
CUMBERLAND     LGT SNOW  21  16  79 NE6       29.39R VSB 3/4 WCI  14
RICE LAKE      CLOUDY    21  17  83 CALM      29.41R
CHETEK         CLOUDY    21  16  81 N5        29.40R WCI  15
LADYSMITH      LGT SNOW  19  15  86 E7        29.41S WCI   9
EAU CLAIRE     CLOUDY    21  15  78 E10       29.35F WCI  10
MENOMONIE      CLOUDY    22  17  79 E3        29.36F
NEW RICHMOND   LGT SNOW  22  17  79 N7        29.39R WCI  13
OSCEOLA        LGT SNOW  22  19  88 N5        29.44R VSB 3/4 WCI  16
$$

WIZ003>005-009-010-017-018-131500-
NORTH CENTRAL WISCONSIN

CITY           SKY/WX    TMP DP  RH WIND       PRES   REMARKS
MANITOWISH WTR SNOW      11   9  93 E7        29.45R VSB 1/2 WCI   0
ARBOR VITAE    SNOW      12   9  87 E6        29.45R VSB 1/2 WCI   3
WOODRUFF       SNOW      12   9  87 E6        29.45R VSB 1/2 WCI   3
RHINELANDER    LGT SNOW  11   8  88 E13       29.44F VSB 3/4 WCI  -4
EAGLE RIVER    SNOW      10   6  82 E12       29.45F VSB 1/2 WCI  -4
LAND O LAKES   LGT SNOW  10   7  85 E10       29.49S VSB 3/4 WCI  -3
PHILLIPS       LGT SNOW  13  11  91 E7        29.40S VSB 3/4 WCI   3
TOMAHAWK       LGT SNOW  12   9  87 E5        29.43F VSB 3/4 WCI   4
MEDFORD        CLOUDY    15  11  86 E9G16     29.38F WCI   3
MERRILL        LGT SNOW  13  10  89 SE7       29.44F VSB 3/4 WCI   3
$$

WIZ029-030-035-036-043>047-131500-
CENTRAL WISCONSIN

CITY           SKY/WX    TMP DP  RH WIND       PRES   REMARKS
WAUSAU         CLOUDY    14  10  84 E12       29.43S WCI   0
MOSINEE        CLOUDY    16  12  86 E14       29.44F WCI   1
MARSHFIELD     CLOUDY    17  13  84 E14       29.38F WCI   3
STEVENS POINT  CLOUDY    15  13  90 E12       29.44F WCI   2
WAUPACA        CLOUDY    20  15  81 E8        29.46F WCI  10
WAUTOMA        CLOUDY    19  16  88 NE10      29.42F WCI   7
WISC RAPIDS    CLOUDY    19  14  81 E9        29.41F WCI   8
CAMP DOUGLAS   CLOUDY    23  16  74 NE5       29.37F WCI  17
$$

WIZ011>013-019>022-031-037>040-048>050-131500-
NORTHEAST WISCONSIN

CITY           SKY/WX    TMP DP  RH WIND       PRES   REMARKS
ANTIGO         SNOW      11   8  89 E16       29.44F VSB 1/4 WCI  -6
SHAWANO        SNOW      18  15  88 E8        29.51F VSB 1/4 WCI   8
OCONTO         CLOUDY    21  19  91 SE9       29.55F VSB 3/4 WCI  11
STURGEON BAY   LGT SNOW  22  20  92 SE8       29.57F VSB 3/4 WCI  12
GREEN BAY      SNOW      21  17  84 E9        29.51F VSB 1/4 WCI  11
MANITOWOC      SNOW      27  26  96 SE20      29.52F VSB 1/2 WCI  13
APPLETON       FLURRIES  19  16  86 E8        29.45F WCI   9
CLINTONVILLE   LGT SNOW  18  14  86 E7        29.49F WCI   8
OSHKOSH        CLOUDY    21  17  84 SE7       29.46F WCI  12
$$

WIZ032>034-041-042-053>061-131500-
SOUTHWEST WISCONSIN

CITY           SKY/WX    TMP DP  RH WIND       PRES   REMARKS
LA CROSSE      CLOUDY    30  23  75 S5        29.33F WCI  25
SPARTA         CLOUDY    27  21  78 E5        29.35F WCI  21
VIROQUA        CLOUDY    26  22  87 S8        29.31F WCI  17
BOSCOBEL       CLOUDY    29  20  69 S6        29.36F WCI  23
PRAIRIE DU CHI CLOUDY    31  22  67 S6        29.34F WCI  25
PLATTEVILLE    CLOUDY    28  22  79 S13       29.37F WCI  17
$$

WIZ056-057-062-063-064-067-068-131500-
SOUTH CENTRAL WISCONSIN

CITY           SKY/WX    TMP DP  RH WIND       PRES   REMARKS
REEDSBURG      CLOUDY    27  18  70 CALM      29.34F
BARABOO/DELLS  CLOUDY    27  18  70 S13       29.34F WCI  16
LONE ROCK      CLOUDY    28  20  71 S6        29.38F WCI  22
MINERAL POINT  CLOUDY    28  23  80 SE13      29.35F WCI  18
MADISON        CLOUDY    28  18  66 S16G25    29.38F WCI  16
MIDDLETON      CLOUDY    28  19  68 S12       29.38F WCI  18
WATERTOWN      CLOUDY    26  19  74 S8        29.43S WCI  17
MONROE         CLOUDY    28  19  69 S22       29.39F WCI  15
JANESVILLE     CLOUDY    30  18  59 S14       29.45F WCI  20
$$

WIZ051-052-058>065-066-070>072-131500-
SOUTHEAST WISCONSIN

CITY           SKY/WX    TMP DP  RH WIND       PRES   REMARKS
MILWAUKEE      CLOUDY    26  16  65 S14       29.50F WCI  14
WAUKESHA       CLOUDY    21  14  73 SE16      29.47F WCI   7
MILWAUKEE/TIMM CLOUDY    25  12  58 S10G18    29.50F WCI  15
RACINE         CLOUDY    28  17  63 S15G29    29.52F WCI  16
BURLINGTON       N/A    N/A N/A N/A MISG        N/A
KENOSHA        CLOUDY    27  14  58 S15       29.49F WCI  15
FOND DU LAC    CLOUDY    23  17  78 SE6       29.45F WCI  16
SHEBOYGAN      LGT SNOW  25  23  92 S10       29.50F FOG     WCI  15
WEST BEND      CLOUDY    21  19  93 SE7       29.45F WCI  13
JUNEAU         CLOUDY    24  17  73 S13G20    29.42F WCI  12
$$

LSZ147-162-131500-
LAKE SUPERIOR

STATION/POSITION TIME  TEMP    WIND        PRES    WAVE
                       AIR SEA DIR/SP/G            HT/PER
                 (UTC) (F)     (DEG/KT/KT) (MB)    (FT/S)
DEVILS ISLAND    1400   21      80/ 21/ 23 1001.4R
SAXON HARBOR     1340   17                  999.3R
$$

LMZ867-665-643>646-131500-
LAKE MICHIGAN

STATION/POSITION TIME  TEMP    WIND        PRES    WAVE
                       AIR SEA DIR/SP/G            HT/PER
                 (UTC) (F)     (DEG/KT/KT) (MB)    (FT/S)
NORTHPORT PIER   1343   24     140/ 15/ 18 1002.7F
KEWAUNEE LAKESHO 1342   26     130/ 14/ 21 1000.2F
SHEBOYGAN LAKESH 1400   30     170/ 25/ 29  999.5F
PORT WASHINGTON  1355   28     180/ 17/ 25  999.7F
MILWAUKEE LAKESH 1350   28     180/ 16/ 19   N/A
KENOSHA   LAKESH 1400   28     180/ 12/ 23  999.0
$$

TC  - TEMPERATURE IN CELSIUS
VSB - VISIBILITY IN STATUTE MILES
WCI - WIND CHILL INDEX
HX  - HEAT INDEX





USA.gov is the U.S. government's official web portal to all federal, state and local government web resources and services.